Wind_Speed
62 61 59 57 56 57 58 58 57 56 53 56 56 56 55 53 59 56 53 53 54 60 59 60 57 55 58 57 58 58 54 49 49 47 42 43 33 37 34 37 38 39 38 38 33
63 60 58 57 59 60 62 59 57 59 57 56 57 56 56 57 60 60 59 64 61 62 63 63 62 61 58 57 57 55 55 51 50 47 44 44 37 35 35 37 37 37 38 31 32
63 61 59 60 56 56 53 54 57 57 58 60 61 61 60 58 65 62 64 66 67 67 70 67 66 68 63 59 59 61 54 57 53 53 46 43 42 35 34 37 38 37 38 30 23
69 68 68 65 63 60 58 57 57 59 61 63 61 65 64 65 70 66 66 67 68 67 72 72 68 69 67 65 60 59 57 58 59 54 49 42 44 38 37 35 39 36 37 35 32
68 69 66 66 59 59 59 59 64 68 71 68 70 67 68 72 74 68 69 69 73 72 74 80 75 74 75 69 66 67 62 59 60 59 50 48 44 42 40 35 38 38 37 34 31
63 66 65 68 69 69 69 71 73 73 73 71 72 72 73 76 73 72 72 72 76 78 82 81 72 71 68 71 69 70 65 61 62 59 55 52 47 41 48 36 36 37 38 35 26
74 71 70 71 72 75 75 74 77 78 75 75 76 73 74 75 73 77 74 78 78 80 84 66 65 68 73 75 77 75 70 67 62 60 56 55 44 44 48 39 36 38 37 36 34
84 84 80 78 75 77 76 76 76 78 80 82 79 77 76 77 81 83 84 85 84 83 78 72 67 71 77 80 81 79 65 63 56 60 56 56 41 47 43 37 38 38 36 36 29
82 74 80 82 81 82 84 81 80 82 84 83 82 83 79 81 83 87 88 86 84 85 85 76 73 78 85 90 89 77 64 60 53 58 54 50 41 47 43 34 39 38 37 33 30
88 87 88 86 88 90 90 89 90 91 88 89 90 87 84 86 86 90 89 91 91 90 87 82 81 83 85 90 81 70 66 57 51 54 55 48 40 46 45 35 40 39 38 32 32
95 94 94 92 92 92 93 99 96 93 93 93 91 88 90 87 86 92 96 95 99 96 97 93 85 83 84 84 78 67 61 51 51 55 59 52 42 45 45 36 38 38 37 32 32
95 91 96 96 96 93 96 100 103 102 97 102 100 93 93 97 99 100 98 97 98 99 103 97 83 85 85 81 70 61 57 49 53 58 63 52 45 49 47 35 40 39 33 32 33
100 99 99 98 98 97 98 94 100 103 103 99 104 100 96 99 99 100 103 104 105 104 98 94 86 86 83 75 68 59 53 52 55 60 63 58 45 44 44 37 41 33 34 35 34
104 104 105 107 100 103 97 95 96 100 102 99 98 97 102 102 105 104 106 108 107 100 96 89 88 87 79 70 69 55 56 57 60 66 62 57 46 42 48 39 38 35 37 38 37
99 99 106 106 104 106 104 106 103 106 108 107 104 99 105 107 111 109 103 102 100 100 99 87 89 86 76 72 66 54 58 59 58 66 68 54 47 44 47 44 41 38 39 39 38
98 101 104 103 106 107 105 111 110 112 104 111 109 100 100 102 104 106 99 102 97 95 97 89 89 84 70 72 61 56 58 60 60 66 64 50 51 42 41 47 43 40 40 41 42
104 104 101 110 111 109 115 115 117 113 108 114 118 110 102 103 104 102 100 97 95 98 94 89 85 80 68 65 58 54 60 60 61 64 52 53 54 46 47 50 47 44 42 42 45
113 107 108 107 112 112 113 120 121 110 112 118 122 117 100 102 106 98 96 95 97 100 89 86 83 78 66 54 59 53 62 60 63 66 57 57 48 48 52 53 51 49 45 44 47
111 111 108 110 116 117 118 125 117 112 116 118 118 110 106 102 103 102 97 94 98 96 82 78 78 75 54 56 56 56 59 63 64 69 67 57 48 46 54 54 52 55 52 44 43
105 106 102 110 112 115 118 109 107 113 113 105 103 111 105 102 104 103 97 92 95 89 78 75 69 65 59 56 56 57 64 67 66 68 74 66 59 54 52 53 48 51 49 46 42
102 99 100 101 109 108 103 102 105 108 108 103 104 108 108 105 102 98 89 87 89 80 68 68 66 61 57 53 57 61 62 70 70 67 68 73 65 61 63 60 56 58 54 48 44
101 99 101 102 107 106 103 108 108 108 108 102 103 103 103 100 93 89 84 84 78 65 59 63 60 54 54 56 62 59 65 75 72 68 68 70 63 56 64 63 62 64 54 51 48
90 90 90 93 92 91 93 96 98 98 95 95 93 91 89 84 80 77 74 73 68 58 55 58 55 51 56 58 61 65 69 74 74 75 70 71 63 62 58 61 67 64 58 54 53
83 81 83 85 82 79 83 86 87 85 84 84 81 78 77 73 70 67 65 66 64 53 50 56 53 49 53 59 63 63 70 75 72 73 74 72 68 69 64 63 66 55 56 59 58
68 66 70 72 72 71 72 71 72 71 72 70 67 66 64 60 59 59 62 59 54 50 50 51 48 48 52 56 63 63 71 78 74 78 78 66 74 73 70 72 74 61 58 58 54
58 54 60 63 61 60 59 60 58 58 58 58 56 55 52 51 53 51 50 49 48 47 46 45 47 47 49 55 57 62 71 76 77 80 77 67 59 71 78 72 64 62 58 60 57
51 49 47 49 49 48 48 48 47 48 49 50 49 48 48 44 44 45 43 42 42 40 41 41 46 47 49 56 57 54 62 74 81 76 71 70 62 65 62 61 62 62 61 62 62
Wind_Direction
266 267 265 265 263 264 267 266 264 264 268 274 279 281 284 284 287 289 290 290 295 299 292 285 281 280 276 275 274 273 271 274 271 274 277 280 290 282 289 298 303 309 315 318 318
267 265 262 260 261 263 262 263 266 267 271 277 280 281 282 286 287 292 289 294 296 296 297 292 284 282 279 278 273 271 271 268 265 267 270 278 282 275 282 292 296 303 310 320 321
263 258 259 264 259 262 266 272 274 271 274 276 277 281 281 285 288 291 290 290 294 294 295 296 285 284 284 282 273 272 270 266 266 263 262 269 276 278 275 285 292 296 307 313 321
263 262 264 261 260 262 267 270 267 267 274 277 281 281 284 286 287 289 287 290 292 292 295 296 286 287 287 284 277 272 270 266 264 262 262 264 267 274 272 277 287 293 301 303 314
261 262 260 263 261 264 265 268 261 267 275 278 279 281 285 286 288 288 286 289 291 294 294 296 287 284 283 279 275 273 273 268 266 262 258 261 261 266 270 269 279 289 295 299 307
260 259 258 260 262 264 261 265 265 268 272 275 277 279 283 285 284 285 287 288 290 292 296 292 286 284 281 282 278 271 271 270 268 263 256 257 256 260 267 265 274 286 286 297 296
258 259 264 264 265 267 265 267 268 269 269 273 277 278 282 283 284 286 285 285 286 291 296 286 284 286 283 284 282 275 274 275 268 261 253 253 244 253 261 262 268 281 282 295 292
264 264 259 259 263 266 266 267 267 270 272 272 276 276 277 281 283 281 282 283 285 290 294 280 278 280 278 278 280 283 280 274 261 252 249 248 239 248 255 259 261 272 276 287 292
260 260 262 262 261 262 264 263 265 266 269 271 273 276 276 280 281 283 282 282 285 288 291 277 275 275 275 275 276 283 277 269 250 247 243 248 238 246 252 256 256 267 270 285 286
260 261 262 263 263 264 264 266 266 267 271 271 275 275 275 277 278 279 281 283 285 286 289 278 272 273 274 276 281 281 277 268 248 238 238 238 239 246 249 248 256 263 270 280 287
257 258 260 262 264 263 263 266 266 267 267 271 273 273 273 274 275 277 280 280 281 283 285 286 278 279 277 280 282 281 274 261 242 232 234 229 233 243 248 245 254 264 268 277 285
257 259 262 262 262 266 267 264 264 267 267 270 274 273 272 277 277 278 277 278 279 282 284 283 282 282 283 282 281 277 268 254 234 230 226 231 228 241 246 243 253 263 267 277 284
259 260 263 265 265 266 264 266 267 268 265 267 271 269 271 273 274 274 276 278 281 283 281 280 282 282 282 281 281 275 261 243 232 227 229 230 221 232 242 236 249 256 266 271 278
259 261 263 264 265 264 262 264 265 263 263 264 264 269 271 271 272 273 274 278 280 279 278 280 281 283 283 281 279 267 253 238 233 222 224 231 215 222 239 240 247 254 259 265 274
259 262 262 263 265 263 263 263 265 269 267 267 266 267 269 272 274 273 276 277 278 277 277 281 282 282 283 281 274 260 247 239 231 227 223 225 211 228 235 241 243 252 253 260 268
260 261 261 264 264 262 265 264 267 269 270 269 268 265 266 269 273 274 272 274 275 276 278 280 281 282 281 277 269 251 243 235 231 223 222 225 219 216 232 242 248 246 247 258 268
260 261 264 263 263 264 266 265 266 266 270 269 269 268 269 272 270 271 271 271 272 275 277 279 281 280 277 269 260 247 239 232 230 221 215 223 225 210 226 236 242 238 250 255 263
259 258 260 261 261 261 267 266 266 268 268 271 270 270 267 267 269 270 270 272 274 274 276 277 279 277 271 263 252 243 236 231 224 216 211 222 220 213 222 231 237 244 246 250 261
257 257 258 259 260 259 262 263 265 267 265 265 267 267 270 269 270 271 271 273 274 274 275 275 275 272 266 252 246 239 230 225 221 219 210 213 216 218 223 228 238 243 244 246 258
259 258 260 258 258 258 259 261 263 264 261 265 266 268 268 268 270 272 272 274 272 274 274 275 270 266 258 249 240 236 225 222 218 219 214 214 217 220 224 226 227 233 234 247 257
261 261 260 261 260 260 261 261 262 262 263 264 265 267 268 269 271 272 275 273 273 274 272 268 262 258 251 241 235 230 224 218 216 217 216 215 219 222 227 231 229 233 238 243 244
267 267 264 263 263 263 264 263 263 264 266 266 265 266 268 269 271 273 274 272 271 268 265 262 259 252 247 233 231 226 221 217 217 215 214 216 214 219 228 230 234 234 233 240 242
269 267 266 263 261 262 261 261 262 263 264 266 266 266 268 269 270 271 269 269 268 262 260 255 253 246 243 232 227 222 218 218 216 219 219 218 213 217 221 226 230 233 239 240 239
267 266 265 265 264 261 259 258 260 261 262 263 265 266 267 267 267 267 266 264 262 260 253 250 248 240 237 233 228 223 219 216 215 215 218 216 211 214 221 227 232 231 231 235 238
268 266 265 263 262 261 260 260 260 261 261 264 265 265 265 263 262 258 257 257 258 255 250 247 244 239 235 232 225 223 217 216 214 215 218 219 213 218 227 229 233 236 232 241 245
268 262 261 262 263 262 262 260 260 260 260 261 260 260 259 255 254 257 255 254 252 249 248 243 240 237 232 233 228 223 219 216 213 215 218 221 212 220 226 229 235 237 236 240 242
265 264 264 263 262 261 260 260 259 257 256 255 255 254 255 256 253 252 253 250 249 247 244 240 237 234 225 228 227 221 220 218 208 214 214 213 209 215 220 224 228 232 232 235 240
Height
10722 10722 10722 10722 10722 10722 10721 10721 10720 10720 10719 10719 10718 10717 10718 10715 10713 10713 10714 10710 10712 10709 10710 10707 10705 10704 10704 10701 10700 10699 10701 10700 10698 10699 10700 10699 10703 10701 10699 10695 10691 10688 10685 10680 10677
10709 10710 10710 10710 10710 10711 10709 10710 10709 10708 10708 10707 10706 10707 10707 10705 10701 10703 10703 10700 10698 10697 10695 10695 10693 10693 10693 10691 10689 10688 10690 10688 10686 10686 10690 10691 10694 10694 10693 10688 10686 10683 10681 10678 10673
10696 10697 10697 10698 10698 10698 10698 10698 10697 10696 10695 10694 10694 10694 10694 10693 10688 10695 10686 10687 10687 10685 10682 10681 10681 10680 10681 10677 10676 10675 10680 10676 10677 10676 10678 10682 10684 10686 10686 10682 10680 10678 10675 10672 10671
10684 10684 10684 10684 10685 10686 10687 10686 10685 10683 10682 10681 10680 10681 10680 10679 10673 10685 10674 10674 10671 10671 10669 10668 10666 10666 10667 10665 10662 10664 10664 10665 10665 10664 10669 10672 10672 10677 10679 10676 10673 10672 10670 10667 10664
10669 10670 10671 10671 10671 10672 10673 10673 10671 10669 10668 10667 10667 10667 10667 10664 10663 10669 10662 10659 10657 10657 10655 10654 10652 10651 10651 10651 10649 10647 10651 10654 10653 10654 10658 10660 10663 10666 10669 10670 10666 10666 10664 10662 10660
10654 10656 10656 10656 10656 10657 10658 10658 10657 10654 10654 10653 10653 10653 10653 10649 10651 10650 10646 10645 10642 10642 10640 10638 10636 10635 10637 10636 10636 10632 10637 10642 10640 10643 10644 10647 10651 10657 10656 10662 10659 10659 10657 10656 10654
10638 10640 10640 10640 10640 10641 10641 10641 10640 10639 10638 10638 10638 10639 10638 10633 10638 10632 10632 10630 10629 10628 10625 10621 10625 10624 10620 10621 10617 10618 10622 10625 10628 10627 10632 10631 10644 10646 10646 10652 10651 10651 10651 10650 10648
10620 10622 10622 10622 10622 10623 10623 10625 10624 10623 10622 10622 10621 10623 10622 10621 10620 10618 10616 10615 10614 10612 10612 10607 10609 10608 10605 10602 10603 10600 10603 10607 10608 10608 10617 10616 10635 10634 10636 10643 10643 10643 10643 10643 10641
10600 10602 10604 10604 10605 10605 10604 10606 10606 10606 10605 10604 10603 10605 10608 10604 10603 10601 10599 10598 10597 10596 10596 10593 10592 10592 10587 10581 10584 10585 10586 10586 10591 10593 10602 10607 10621 10622 10627 10634 10635 10635 10635 10636 10636
10581 10582 10583 10584 10585 10586 10586 10586 10588 10588 10588 10585 10586 10587 10590 10590 10589 10582 10582 10579 10577 10580 10579 10575 10575 10576 10570 10561 10569 10568 10567 10575 10582 10583 10585 10593 10606 10612 10617 10624 10626 10628 10627 10628 10628
10560 10562 10561 10562 10563 10565 10566 10564 10567 10569 10568 10565 10566 10571 10564 10570 10573 10561 10563 10565 10558 10561 10558 10557 10562 10558 10550 10548 10551 10551 10552 10561 10569 10569 10569 10577 10591 10600 10607 10614 10618 10619 10620 10620 10620
10534 10536 10538 10538 10541 10542 10544 10543 10541 10546 10555 10543 10542 10553 10550 10544 10552 10545 10542 10543 10541 10542 10539 10531 10550 10537 10530 10532 10535 10536 10538 10546 10551 10555 10555 10566 10580 10587 10595 10605 10609 10611 10612 10612 10612
10512 10513 10512 10513 10520 10519 10519 10523 10518 10518 10527 10530 10523 10530 10529 10523 10525 10522 10521 10520 10520 10523 10516 10515 10526 10516 10515 10518 10518 10520 10524 10527 10538 10540 10547 10554 10571 10578 10586 10593 10599 10604 10605 10604 10605
10489 10490 10490 10486 10499 10490 10500 10493 10494 10491 10494 10507 10510 10509 10500 10500 10501 10499 10498 10497 10499 10500 10491 10502 10499 10495 10498 10503 10499 10506 10505 10513 10521 10523 10537 10542 10563 10570 10575 10584 10591 10595 10597 10595 10598
10466 10466 10468 10461 10469 10467 10477 10466 10468 10464 10465 10473 10488 10495 10483 10479 10473 10476 10478 10475 10473 10475 10469 10489 10477 10474 10482 10480 10481 10492 10491 10500 10508 10515 10524 10537 10550 10560 10565 10574 10581 10585 10588 10588 10590
10438 10440 10441 10436 10441 10442 10444 10443 10442 10439 10453 10440 10444 10466 10464 10461 10453 10437 10462 10458 10454 10452 10449 10461 10455 10456 10465 10459 10466 10470 10477 10485 10494 10503 10517 10527 10539 10548 10558 10562 10570 10575 10578 10580 10581
10410 10411 10415 10411 10408 10416 10413 10415 10414 10426 10428 10416 10410 10429 10443 10434 10429 10428 10429 10432 10437 10427 10433 10436 10438 10438 10441 10443 10448 10455 10461 10471 10483 10495 10517 10514 10526 10541 10546 10552 10559 10564 10569 10571 10573
10379 10383 10385 10387 10380 10383 10383 10383 10391 10417 10402 10381 10379 10390 10414 10407 10394 10407 10408 10411 10409 10401 10415 10416 10415 10415 10422 10432 10427 10441 10445 10461 10473 10485 10495 10503 10520 10533 10533 10542 10547 10555 10559 10560 10563
10345 10351 10359 10356 10356 10349 10350 10355 10378 10375 10369 10363 10356 10370 10371 10378 10373 10375 10384 10391 10382 10378 10391 10397 10394 10390 10409 10409 10413 10424 10436 10443 10457 10469 10481 10495 10507 10515 10523 10531 10535 10543 10549 10550 10554
10312 10317 10332 10321 10323 10321 10317 10340 10346 10334 10332 10347 10343 10330 10344 10351 10347 10347 10360 10365 10352 10359 10369 10369 10375 10377 10384 10392 10398 10409 10416 10427 10444 10457 10472 10486 10494 10503 10511 10516 10523 10530 10538 10542 10546
10280 10288 10296 10297 10285 10289 10304 10311 10306 10302 10302 10317 10320 10314 10315 10321 10325 10325 10332 10336 10327 10335 10347 10346 10351 10360 10367 10377 10381 10392 10406 10418 10429 10445 10459 10471 10484 10487 10496 10505 10513 10515 10528 10534 10537
10250 10262 10263 10267 10261 10267 10281 10278 10276 10277 10276 10289 10289 10287 10292 10295 10301 10304 10309 10304 10305 10317 10325 10325 10335 10345 10349 10357 10362 10382 10393 10403 10418 10436 10447 10458 10472 10479 10484 10496 10502 10505 10515 10522 10529
10225 10228 10230 10226 10235 10241 10248 10247 10245 10248 10254 10256 10263 10264 10267 10275 10278 10282 10283 10283 10285 10297 10306 10308 10317 10326 10329 10339 10349 10361 10375 10388 10406 10417 10436 10447 10464 10467 10475 10479 10481 10496 10505 10512 10518
10194 10200 10201 10196 10203 10214 10216 10217 10222 10226 10232 10233 10239 10244 10246 10253 10256 10261 10264 10263 10268 10281 10289 10288 10299 10308 10314 10319 10332 10349 10362 10379 10389 10408 10420 10436 10444 10454 10460 10464 10469 10484 10493 10497 10506
10171 10176 10174 10176 10180 10185 10188 10197 10200 10206 10210 10213 10221 10223 10227 10233 10234 10240 10242 10248 10256 10264 10269 10276 10286 10293 10301 10307 10319 10336 10349 10363 10379 10394 10398 10417 10430 10437 10444 10451 10457 10479 10485 10488 10496
10147 10154 10153 10154 10160 10166 10172 10175 10182 10188 10193 10196 10201 10204 10209 10213 10217 10224 10231 10237 10242 10248 10254 10262 10271 10278 10290 10294 10308 10324 10336 10354 10368 10379 10393 10404 10420 10424 10430 10444 10455 10462 10470 10475 10483
10133 10137 10141 10142 10145 10152 10155 10160 10167 10170 10175 10178 10185 10191 10194 10202 10207 10211 10219 10223 10229 10237 10242 10251 10258 10265 10277 10281 10291 10314 10332 10342 10357 10367 10380 10391 10403 10407 10420 10431 10442 10450 10458 10463 10467